COSMOS 726

导读 | 星芒AI

COSMOS 726 是苏联于1975年发射的一颗军用侦察卫星,属于“宇宙”卫星系列。该卫星主要用于电子情报收集和监视任务,具体功能和轨道参数未公开。作为冷战时期苏联太空计划的一部分,COSMOS 726 在轨道上运行一段时间后失联,最终再入大气层销毁。这类卫星在当时对军事战略和情报获取具有重要意义。

基本信息
目录编号:
7736
目录名称:
COSMOS 726
国际标识:
1975-028A
轨道中心:
EARTH
卫星名称:
COSMOS 726
卫星全名:
--
卫星状态:
在轨 (已飞行18464 天)
发射日期:
1975-04-11 UTC
国别 :
俄罗斯(独联体) (CIS)
星等 :
--
轨道信息
数据来源 国际轨道数据 AOE轨道数据
星历时间 2025-10-28T20:34:13+0800
18小时前
查看轨道信息
2025-10-26T11:00:00+0800
3天前
查看轨道信息
半长轴 7347.598km 7347.601km
偏心率 0.0025229 0.0025331
轨道倾角 82.999° 83.000°
近地点辐角 340.498° 347.180°
升交点赤经 33.264° 35.038°
平近点角 19.521° 356.077°
近地点 950.925km 950.853km
远地点 988.001km 988.079km
周期 104.467分钟 104.467分钟
每日圈数 13.784299 13.784293
详细信息
使用方式:
暂无
2D轨道图
3D轨道图
轨道高度分析图
轨道倾角分析图
轨道综合分析图
查看轨道综合分析图